Simultaneous Nadir Overpasses (SNOs) Predictions

Prediction of SNOs between GOES-16 and LANDSAT-8 Satellite Orbit:

Table of predicted SNOs for the next 14.0 days since TLE Epoch: 12/31/2021
Index Date Time (GOES-16) GOES-16 Lat,Lon LANDSAT-8 Lat,Lon Distance(km) Time Diff (sec)
1 12/31/2021 15:06:45 -0.02, -75.19 -0.29, -73.90 146.52 80
2 01/01/2022 03:30:49 0.01, -75.17 -0.83, -79.09 445.66 80
3 01/02/2022 14:54:34 -0.02, -75.18 -0.93, -70.95 481.79 80
4 01/03/2022 03:18:38 0.02, -75.17 -0.19, -76.14 110.28 80
5 01/05/2022 03:03:47 0.01, -75.17 0.46, -73.19 225.99 80
6 01/05/2022 15:27:41 -0.01, -75.19 0.67, -78.34 358.38 80
7 01/07/2022 15:15:30 -0.00, -75.20 0.03, -75.39 20.76 80
8 01/09/2022 15:00:40 -0.00, -75.22 -0.62, -72.43 317.67 80
9 01/10/2022 03:24:43 0.00, -75.21 -0.49, -77.62 273.56 80
10 01/12/2022 03:09:51 0.01, -75.24 0.10, -74.66 65.45 80
11 01/14/2022 02:57:40 0.02, -75.27 0.76, -71.71 404.61 80
